Weather in Seregovo

Russia / Komi Republic     62°19′44″N   50°41′47″E
temp.,
°C
wind,
m/s
gust,
m/s
humid.,
%
clouds,
%
prec.,
mm/h
press.,
hPa
HPBL,
m
9 may, sun
sun900:00+8ese31062100 0.0 1016207
03:00+7ese4117086 0.0 1016276
06:00+10se4117294 0.0 1014405
09:00+14sse5956100 0.0 10131007
12:00+18sse6104771 0.0 10121433
15:00+20sse6124381 0.0 10112266
18:00+19sse61345100 0.0 10111528
21:00+16sse61452100 0.0 10111025
10 may, mon
mon1000:00+16s61556100 0.0 10111052
03:00+14s51371100 0.1 1013803
06:00+10nw5789100 0.9 1016571
09:00+6nw4890100 3.3 1020582
12:00+5nnw3791100 5.1 1023559
15:00+7nnw3570100 6.3 1025919
18:00+8nnw24645 0.0 1027916
21:00+5sse11775 0.0 102810
11 may, tue
tue1100:00+4ssw228452 0.0 102925
03:00+3ssw238897 0.0 103056
06:00+6ssw3773100 0.0 1030257
09:00+11sw485299 0.0 1029819
12:00+10sw41160100 0.0 1029713
15:00+11sw396099 0.0 1029518
18:00+11sw2567100 0.0 1029153
21:00+12ssw3117599 0.0 1028278
12 may, wed
wed1200:00+11sw31184100 0.0 1029282
03:00+9sw299462 0.0 1030202
06:00+13wsw387970 0.0 1030275
09:00+19wsw485798 0.0 1029786
12:00+22w5744100 0.0 10281476
15:00+23w5741100 0.0 10281618
18:00+21w375199 0.0 1028394
21:00+16wsw22735 0.0 102829
13 may, thu
thu1300:00+14wsw23812 0.0 102952
03:00+12wsw22865 0.0 102931
06:00+16wsw23682 0.0 1029184
09:00+22sw34480 0.0 1028801
12:00+25sw35360 0.0 10271769
15:00+25sw45333 0.0 10262075
18:00+23sw363995 0.0 1025701
21:00+17sw2658100 0.0 102598